Location: Drawsko Pomorskie
(53.5317°N, 15.8111°E)
Time: 10:47:11
(UTC+01:00)

ISS - Pass Details

Date: 26 January 2019
Orbit: 403 x 411 km, 51.6° (Epoch: 22 February)

Event Time Altitude Azimuth Distance (km) Brightness Sun altitude
Rises 19:12:20 0° 245° (WSW) 2,333 1.1 -24.2°
Reaches altitude 10° 19:14:27 10° 240° (WSW) 1,476 -0.2 -24.5°
Enters shadow 19:16:03 25° 227° (SW) 881 -1.7 -24.8°
